Weather Roundup
Issued by NWS

Home | Current Version | Previous Version | Graphics & Text | Print | Product List | Glossary Off
Versions: 1 2 3 4 5 6 7 8 9 10 11 12 13 14 15 16 17 18 19 20 21 22 23 24 25 26 27 28 29 30 31 32 33 34 35 36 37 38 39 40 41 42 43 44 45 46 47 48 49 50

000
NZUS93 KARX 290510
HRRWXR

CURRENT HOURLY OBSERVATIONS ACROSS
MUCH OF THE UPPER MISSISSIPPI VALLEY
NATIONAL WEATHER SERVICE LA CROSSE WI
1200 AM CDT FRI AUG 29 2014


...SOUTHEAST MINNESOTA...


CITY           SKY/WX    TMP DP  RH WIND       PRES   REMARKS
ROCHESTER      CLOUDY    66  65  96 SE9       29.94F FOG
ROCHESTER/MAYO CLOUDY    65  65  97 SE8       29.93F
WINONA         CLOUDY    66  64  94 SE6       29.95F
AUSTIN         CLOUDY    66  66 100 S7        29.91F FOG
ALBERT LEA     CLOUDY    70  68  94 SE9G16    29.90S FOG
DODGE CENTER   LGT RAIN  66  66 100 SE8       29.92S VSB 1
PRESTON        CLOUDY    65  65 100 CALM      29.95S FOG
OWATONNA       CLOUDY    66  64  94 SE8       29.90F FOG
FARIBAULT      CLOUDY    68  63  83 E7        29.90F
$$

...ELSEWHERE IN MINNESOTA...


CITY           SKY/WX    TMP DP  RH WIND       PRES   REMARKS
MINNEAPOLIS    CLOUDY    67  64  90 SE13      29.90F
INTNL FALLS    CLOUDY    63  61  93 CALM      29.90F
DULUTH         CLOUDY    60  55  83 E7        29.96F
RED WING       CLOUDY    66  64  94 SE15G21   29.90F
REDWOOD FALLS  LGT RAIN  66  65  96 SE7       29.85F
MANKATO        CLOUDY    73  63  68 SE12      29.87F
WORTHINGTON    CLOUDY    72  70  94 SE5       29.87S
FAIRMONT       CLOUDY    66  64  94 SE7       29.86F
$$

...SOUTHWEST WISCONSIN...


CITY           SKY/WX    TMP DP  RH WIND       PRES   REMARKS
LA CROSSE      CLOUDY    67  63  87 E8        29.95F
PRAIRIE DU CHI CLOUDY    68  62  80 E6        29.96S
BOSCOBEL       CLOUDY    69  59  70 CALM      29.98F
LONE ROCK      CLOUDY    70  57  63 E8        29.99F
PLATTEVILLE    CLOUDY    64  62  91 SE8       30.00F
FORT MC COY    CLOUDY    62  60  93 NE5       29.98F
CAMP DOUGLAS   CLOUDY    61  61 100 E7        30.00F
VIROQUA        CLOUDY    63  63  99 SE7       29.98S
WIS DELLS      RAIN      61  56  82 SE3       30.00F
$$

...ELSEWHERE IN WISCONSIN...


CITY           SKY/WX    TMP DP  RH WIND       PRES   REMARKS
MILWAUKEE      CLOUDY    68  59  73 SE9       30.04F
MADISON        CLOUDY    65  58  78 SE10      30.01F
GREEN BAY      CLOUDY    63  57  81 SE5       30.05S
EAU CLAIRE     CLOUDY    64  63  96 SE9       29.96F
BLACK RVR FLS  DRIZZLE   61  61 100 E5        29.99S
MEDFORD        LGT RAIN  58  57  94 S12       30.03S
WAUSAU         LGT RAIN  61  58  90 SE5       30.03R
WIS RAPIDS     HVY RAIN  57  54  89 SE9G21    30.05R FOG
MARSHFIELD     LGT RAIN  59  57  93 SE10      30.02F FOG
RICE LAKE      CLOUDY    64  61  90 SE13G20   29.98F
$$

...NORTHEAST IOWA...


CITY           SKY/WX    TMP DP  RH WIND       PRES   REMARKS
WATERLOO       CLOUDY    70  67  90 SE15      29.92F
DUBUQUE        PTCLDY    66  65  96 SE9       29.99S
DECORAH        CLOUDY    68  66  94 S10G16    29.94F
MASON CITY     CLOUDY    69  69 100 S14G20    29.92S
CHARLES CITY   CLOUDY    68  68 100 S12       29.94R FOG
OELWEIN        CLOUDY    68  68 100 S16G22    29.96F FOG
$$

...ELSEWHERE IN IOWA...


CITY           SKY/WX    TMP DP  RH WIND       PRES   REMARKS
DES MOINES     CLOUDY    70  68  93 E3        29.92F
IOWA CITY      CLEAR     68  67  96 SE5       29.97S
FORT DODGE     CLOUDY    72  70  94 S9        29.89F
MARSHALLTOWN   CLOUDY    70  68  93 SE12      29.93R
CEDAR RAPIDS   MOCLDY    68  68 100 SE7       29.95F FOG
$$

...NORTHERN ILLINOIS...


CITY           SKY/WX    TMP DP  RH WIND       PRES   REMARKS
CHICAGO-OHARE  CLOUDY    70  63  78 SE8       30.03F
DUPAGE         CLOUDY    69  65  86 SE6       30.03F
CHICAGO-MIDWAY CLOUDY    74  67  78 SE8       30.03F
MOLINE         PTCLDY    69  66  90 SE7       29.97F
ROCKFORD       LGT RAIN  66  62  87 SE8       30.02F
STERLING       CLOUDY    70  64  83 SE7       30.00S
PEORIA         CLOUDY    72  68  87 SE6       29.99F
$$

NOTE: "FAIR" INDICATES FEW OR NO CLOUDS BELOW 12,000 FEET WITH NO
SIGNIFICANT WEATHER AND/OR OBSTRUCTIONS TO VISIBILITY. WIND
SPEEDS ARE IN MILES-PER-HOUR.



USA.gov is the U.S. government's official web portal to all federal, state and local government web resources and services.